Time,TemperatureF,DewpointF,PressureIn,WindDirection,WindDirectionDegrees,WindSpeedMPH,WindSpeedGustMPH,Humidity,HourlyPrecipIn,Conditions,Clouds,dailyrainin,SoftwareType,DateUTC
2013-04-27 00:02:00,51.3,42.7,30.17,SW,225,3.1,4.9,72,0.00,,,0.00,WUHU216HW,2013-04-27 07:02:00,
2013-04-27 00:07:00,51.3,42.7,30.17,SW,225,2.7,3.8,72,0.00,,,0.00,WUHU216HW,2013-04-27 07:07:00,
2013-04-27 00:12:00,51.3,42.7,30.17,SW,225,2.2,4.9,72,0.00,,,0.00,WUHU216HW,2013-04-27 07:12:00,
2013-04-27 00:17:00,51.3,42.7,30.18,North,0,0.0,4.9,72,0.00,,,0.00,WUHU216HW,2013-04-27 07:17:00,
2013-04-27 00:22:00,51.3,42.7,30.18,North,0,0.0,2.2,72,0.00,,,0.00,WUHU216HW,2013-04-27 07:22:00,
2013-04-27 00:27:00,51.3,42.7,30.18,SW,225,1.8,1.8,72,0.00,,,0.00,WUHU216HW,2013-04-27 07:27:00,
2013-04-27 00:32:00,51.3,42.7,30.18,SSW,203,0.9,2.0,72,0.00,,,0.00,WUHU216HW,2013-04-27 07:32:00,
2013-04-27 00:37:00,51.1,42.5,30.18,SSW,203,1.8,2.0,72,0.00,,,0.00,WUHU216HW,2013-04-27 07:37:00,
2013-04-27 00:42:00,51.1,42.5,30.18,WSW,248,2.9,3.8,72,0.00,,,0.00,WUHU216HW,2013-04-27 07:42:00,
2013-04-27 00:47:00,51.1,42.5,30.18,WSW,248,4.3,4.3,72,0.00,,,0.00,WUHU216HW,2013-04-27 07:47:00,
2013-04-27 00:52:00,51.1,42.5,30.18,West,270,1.8,4.3,72,0.00,,,0.00,WUHU216HW,2013-04-27 07:52:00,
2013-04-27 00:57:00,51.1,42.5,30.18,North,0,0.0,4.0,72,0.00,,,0.00,WUHU216HW,2013-04-27 07:57:00,
2013-04-27 01:02:00,51.3,42.3,30.18,SW,225,4.7,4.7,71,0.00,,,0.00,WUHU216HW,2013-04-27 08:02:00,
2013-04-27 01:07:00,51.5,42.5,30.18,North,0,0.0,4.7,71,0.00,,,0.00,WUHU216HW,2013-04-27 08:07:00,
2013-04-27 01:12:00,51.5,42.5,30.18,SW,225,1.8,4.7,71,0.00,,,0.00,WUHU216HW,2013-04-27 08:12:00,
2013-04-27 01:17:00,51.5,42.1,30.18,West,270,4.0,4.0,70,0.00,,,0.00,WUHU216HW,2013-04-27 08:17:00,
2013-04-27 01:22:00,51.5,42.1,30.18,SW,225,5.4,5.4,70,0.00,,,0.00,WUHU216HW,2013-04-27 08:22:00,
2013-04-27 01:27:00,51.1,42.1,30.18,SSW,203,1.8,5.4,71,0.00,,,0.00,WUHU216HW,2013-04-27 08:27:00,
2013-04-27 01:32:00,51.1,42.1,30.18,SW,225,2.5,4.7,71,0.00,,,0.00,WUHU216HW,2013-04-27 08:32:00,
2013-04-27 01:37:00,51.1,42.1,30.17,WSW,248,4.0,6.7,71,0.00,,,0.00,WUHU216HW,2013-04-27 08:37:00,
2013-04-27 01:42:00,51.1,42.1,30.16,SSW,203,4.0,6.7,71,0.00,,,0.00,WUHU216HW,2013-04-27 08:42:00,
2013-04-27 01:47:00,50.9,42.0,30.17,West,270,4.0,4.0,71,0.00,,,0.00,WUHU216HW,2013-04-27 08:47:00,
2013-04-27 01:52:00,50.8,42.1,30.16,WSW,248,1.8,4.0,72,0.00,,,0.00,WUHU216HW,2013-04-27 08:52:00,
2013-04-27 01:57:00,50.8,42.1,30.17,WSW,248,1.8,1.8,72,0.00,,,0.00,WUHU216HW,2013-04-27 08:57:00,
2013-04-27 02:02:00,50.6,42.0,30.17,SSW,203,1.8,4.5,72,0.00,,,0.00,WUHU216HW,2013-04-27 09:02:00,
2013-04-27 02:07:00,50.4,41.8,30.17,SW,225,1.3,4.5,72,0.00,,,0.00,WUHU216HW,2013-04-27 09:07:00,
2013-04-27 02:12:00,50.4,41.8,30.17,SW,225,2.2,4.0,72,0.00,,,0.00,WUHU216HW,2013-04-27 09:12:00,
2013-04-27 02:17:00,50.4,41.8,30.16,WSW,248,3.1,3.8,72,0.00,,,0.00,WUHU216HW,2013-04-27 09:17:00,
2013-04-27 02:22:00,50.6,42.0,30.16,SSW,203,3.8,3.8,72,0.00,,,0.00,WUHU216HW,2013-04-27 09:22:00,
2013-04-27 02:27:00,50.4,42.0,30.16,SW,225,1.3,3.8,73,0.00,,,0.00,WUHU216HW,2013-04-27 09:27:00,
2013-04-27 02:32:00,50.4,42.0,30.16,SSW,203,1.8,3.8,73,0.00,,,0.00,WUHU216HW,2013-04-27 09:32:00,
2013-04-27 02:37:00,50.4,42.0,30.16,SSW,203,1.3,3.4,73,0.00,,,0.00,WUHU216HW,2013-04-27 09:37:00,
2013-04-27 02:42:00,50.4,42.0,30.16,NW,315,2.5,2.9,73,0.00,,,0.00,WUHU216HW,2013-04-27 09:42:00,
2013-04-27 02:47:00,50.4,42.0,30.16,SW,225,2.2,3.4,73,0.00,,,0.00,WUHU216HW,2013-04-27 09:47:00,
2013-04-27 02:52:00,50.6,42.2,30.16,SW,225,2.9,4.3,73,0.00,,,0.00,WUHU216HW,2013-04-27 09:52:00,
2013-04-27 02:57:00,50.6,42.2,30.15,WSW,248,4.7,4.7,73,0.00,,,0.00,WUHU216HW,2013-04-27 09:57:00,
2013-04-27 03:02:00,50.4,42.0,30.14,WSW,248,0.9,4.7,73,0.00,,,0.00,WUHU216HW,2013-04-27 10:02:00,
2013-04-27 03:07:00,50.4,42.0,30.14,SSW,203,1.1,3.1,73,0.00,,,0.00,WUHU216HW,2013-04-27 10:07:00,
2013-04-27 03:12:00,50.4,42.0,30.14,South,180,1.6,2.5,73,0.00,,,0.00,WUHU216HW,2013-04-27 10:12:00,
2013-04-27 03:18:00,50.4,42.0,30.15,SW,225,1.1,2.5,73,0.00,,,0.00,WUHU216HW,2013-04-27 10:18:00,
2013-04-27 03:23:00,50.2,41.9,30.15,SW,225,2.7,2.9,73,0.00,,,0.00,WUHU216HW,2013-04-27 10:23:00,
2013-04-27 03:28:00,50.4,42.0,30.15,West,270,1.3,2.9,73,0.00,,,0.00,WUHU216HW,2013-04-27 10:28:00,
2013-04-27 03:33:00,50.4,42.4,30.15,SW,225,3.6,3.6,74,0.00,,,0.00,WUHU216HW,2013-04-27 10:33:00,
2013-04-27 03:38:00,50.4,42.0,30.15,West,270,1.8,4.7,73,0.00,,,0.00,WUHU216HW,2013-04-27 10:38:00,
2013-04-27 03:43:00,50.4,42.0,30.15,SW,225,1.8,4.7,73,0.00,,,0.00,WUHU216HW,2013-04-27 10:43:00,
2013-04-27 03:48:00,50.2,42.2,30.15,SSW,203,5.1,5.1,74,0.00,,,0.00,WUHU216HW,2013-04-27 10:48:00,
2013-04-27 03:53:00,50.0,42.0,30.15,WSW,248,2.5,5.1,74,0.00,,,0.00,WUHU216HW,2013-04-27 10:53:00,
2013-04-27 03:58:00,50.0,42.4,30.16,SSW,203,2.5,4.0,75,0.00,,,0.00,WUHU216HW,2013-04-27 10:58:00,
2013-04-27 04:03:00,49.9,42.2,30.15,SSW,203,1.3,3.6,75,0.00,,,0.00,WUHU216HW,2013-04-27 11:03:00,
2013-04-27 04:08:00,49.9,42.2,30.15,SW,225,3.8,3.8,75,0.00,,,0.00,WUHU216HW,2013-04-27 11:08:00,
2013-04-27 04:13:00,49.7,42.0,30.15,SSW,203,2.5,3.8,75,0.00,,,0.00,WUHU216HW,2013-04-27 11:13:00,
2013-04-27 04:18:00,49.5,41.9,30.14,SW,225,0.9,3.8,75,0.00,,,0.00,WUHU216HW,2013-04-27 11:18:00,
2013-04-27 04:23:00,49.3,42.0,30.14,NNW,338,1.6,4.0,76,0.00,,,0.00,WUHU216HW,2013-04-27 11:23:00,
2013-04-27 04:28:00,49.1,41.9,30.15,SW,225,1.8,4.0,76,0.00,,,0.00,WUHU216HW,2013-04-27 11:28:00,
2013-04-27 04:33:00,49.0,41.7,30.14,SSW,203,0.7,2.5,76,0.00,,,0.00,WUHU216HW,2013-04-27 11:33:00,
2013-04-27 04:38:00,49.0,42.0,30.14,SW,225,1.8,2.2,77,0.00,,,0.00,WUHU216HW,2013-04-27 11:38:00,
2013-04-27 04:43:00,48.8,41.9,30.14,SW,225,1.1,2.5,77,0.00,,,0.00,WUHU216HW,2013-04-27 11:43:00,
2013-04-27 04:48:00,48.8,41.5,30.14,SW,225,0.9,2.0,76,0.00,,,0.00,WUHU216HW,2013-04-27 11:48:00,
2013-04-27 04:53:00,48.6,41.9,30.14,SW,225,1.3,2.2,78,0.00,,,0.00,WUHU216HW,2013-04-27 11:53:00,
2013-04-27 04:58:00,48.6,41.9,30.13,South,180,1.8,2.5,78,0.00,,,0.00,WUHU216HW,2013-04-27 11:58:00,
2013-04-27 05:03:00,48.4,41.5,30.13,SSW,203,1.1,2.5,77,0.00,,,0.00,WUHU216HW,2013-04-27 12:03:00,
2013-04-27 05:08:00,48.2,41.6,30.13,South,180,1.8,1.8,78,0.00,,,0.00,WUHU216HW,2013-04-27 12:08:00,
2013-04-27 05:13:00,48.1,41.5,30.13,SSW,203,0.9,2.5,78,0.00,,,0.00,WUHU216HW,2013-04-27 12:13:00,
2013-04-27 05:18:00,47.9,41.3,30.13,SSW,203,1.8,2.5,78,0.00,,,0.00,WUHU216HW,2013-04-27 12:18:00,
2013-04-27 05:23:00,47.9,41.3,30.13,SW,225,1.8,2.2,78,0.00,,,0.00,WUHU216HW,2013-04-27 12:23:00,
2013-04-27 05:28:00,47.9,41.3,30.12,South,180,1.8,2.5,78,0.00,,,0.00,WUHU216HW,2013-04-27 12:28:00,
2013-04-27 05:33:00,47.9,41.3,30.12,South,180,1.8,2.5,78,0.00,,,0.00,WUHU216HW,2013-04-27 12:33:00,
2013-04-27 05:38:00,47.7,40.8,30.12,SSW,203,0.4,1.8,77,0.00,,,0.00,WUHU216HW,2013-04-27 12:38:00,
2013-04-27 05:43:00,47.5,40.6,30.12,SSW,203,1.8,1.8,77,0.00,,,0.00,WUHU216HW,2013-04-27 12:43:00,
2013-04-27 05:48:00,47.3,40.8,30.12,SW,225,1.1,1.8,78,0.00,,,0.00,WUHU216HW,2013-04-27 12:48:00,
2013-04-27 05:53:00,47.3,40.8,30.12,SW,225,1.1,2.2,78,0.00,,,0.00,WUHU216HW,2013-04-27 12:53:00,
2013-04-27 05:58:00,47.3,40.8,30.12,SW,225,1.3,3.1,78,0.00,,,0.00,WUHU216HW,2013-04-27 12:58:00,
2013-04-27 06:03:00,47.3,41.5,30.12,SSW,203,2.0,3.1,80,0.00,,,0.00,WUHU216HW,2013-04-27 13:03:00,
2013-04-27 06:08:00,47.3,41.5,30.13,South,180,1.6,2.0,80,0.00,,,0.00,WUHU216HW,2013-04-27 13:08:00,
2013-04-27 06:13:00,47.3,41.1,30.13,SW,225,0.0,2.0,79,0.00,,,0.00,WUHU216HW,2013-04-27 13:13:00,
2013-04-27 06:18:00,47.3,41.5,30.13,SE,135,2.0,2.5,80,0.00,,,0.00,WUHU216HW,2013-04-27 13:18:00,
2013-04-27 06:23:00,47.2,41.3,30.13,SW,225,0.2,3.4,80,0.00,,,0.00,WUHU216HW,2013-04-27 13:23:00,
2013-04-27 06:28:00,47.2,41.3,30.13,SSW,203,2.0,3.4,80,0.00,,,0.00,WUHU216HW,2013-04-27 13:28:00,
2013-04-27 06:33:00,47.0,41.5,30.12,SSE,158,2.7,2.9,81,0.00,,,0.00,WUHU216HW,2013-04-27 13:33:00,
2013-04-27 06:38:00,46.8,41.3,30.12,South,180,2.5,3.4,81,0.00,,,0.00,WUHU216HW,2013-04-27 13:38:00,
2013-04-27 06:43:00,46.4,41.0,30.12,South,180,2.2,3.4,81,0.00,,,0.00,WUHU216HW,2013-04-27 13:43:00,
2013-04-27 06:48:00,46.4,41.0,30.12,SSW,203,1.8,3.1,81,0.00,,,0.00,WUHU216HW,2013-04-27 13:48:00,
2013-04-27 06:53:00,46.4,41.3,30.12,SSE,158,3.1,3.4,82,0.00,,,0.00,WUHU216HW,2013-04-27 13:53:00,
2013-04-27 06:58:00,46.4,41.3,30.12,SSE,158,3.4,3.6,82,0.00,,,0.00,WUHU216HW,2013-04-27 13:58:00,
2013-04-27 07:03:00,46.3,41.1,30.11,SSE,158,0.4,3.6,82,0.00,,,0.00,WUHU216HW,2013-04-27 14:03:00,
2013-04-27 07:08:00,46.3,41.4,30.10,South,180,2.0,3.1,83,0.00,,,0.00,WUHU216HW,2013-04-27 14:08:00,
2013-04-27 07:13:00,46.4,41.3,30.11,SSW,203,1.8,2.5,82,0.00,,,0.00,WUHU216HW,2013-04-27 14:13:00,
2013-04-27 07:19:00,46.6,41.1,30.11,South,180,1.6,2.5,81,0.00,,,0.00,WUHU216HW,2013-04-27 14:19:00,
2013-04-27 07:24:00,46.8,41.3,30.11,SSW,203,0.0,1.6,81,0.00,,,0.00,WUHU216HW,2013-04-27 14:24:00,
2013-04-27 07:29:00,47.0,41.5,30.11,SW,225,0.7,1.1,81,0.00,,,0.00,WUHU216HW,2013-04-27 14:29:00,
2013-04-27 07:34:00,47.3,41.8,30.11,WSW,248,1.8,2.5,81,0.00,,,0.00,WUHU216HW,2013-04-27 14:34:00,
2013-04-27 07:39:00,47.7,42.1,30.11,WSW,248,1.8,2.5,81,0.00,,,0.00,WUHU216HW,2013-04-27 14:39:00,
2013-04-27 07:44:00,48.1,42.5,30.11,WSW,248,1.1,3.8,81,0.00,,,0.00,WUHU216HW,2013-04-27 14:44:00,
2013-04-27 07:49:00,48.4,43.1,30.11,WSW,248,0.4,3.8,82,0.00,,,0.00,WUHU216HW,2013-04-27 14:49:00,
2013-04-27 07:54:00,48.8,43.2,30.11,WSW,248,4.7,4.7,81,0.00,,,0.00,WUHU216HW,2013-04-27 14:54:00,
2013-04-27 07:59:00,49.1,43.5,30.11,WSW,248,0.4,4.7,81,0.00,,,0.00,WUHU216HW,2013-04-27 14:59:00,
2013-04-27 08:04:00,49.3,43.4,30.11,SSW,203,0.9,4.0,80,0.00,,,0.00,WUHU216HW,2013-04-27 15:04:00,
2013-04-27 08:09:00,49.7,43.4,30.11,SW,225,1.3,3.1,79,0.00,,,0.00,WUHU216HW,2013-04-27 15:09:00,
2013-04-27 08:14:00,49.7,43.4,30.12,WSW,248,2.9,3.8,79,0.00,,,0.00,WUHU216HW,2013-04-27 15:14:00,
2013-04-27 08:19:00,49.9,43.9,30.12,WSW,248,1.8,5.6,80,0.00,,,0.00,WUHU216HW,2013-04-27 15:19:00,
2013-04-27 08:24:00,50.2,44.3,30.12,South,180,1.8,5.6,80,0.00,,,0.00,WUHU216HW,2013-04-27 15:24:00,
2013-04-27 08:29:00,50.4,44.5,30.13,WSW,248,2.7,2.7,80,0.00,,,0.00,WUHU216HW,2013-04-27 15:29:00,
2013-04-27 08:34:00,50.8,44.5,30.13,West,270,4.0,4.7,79,0.00,,,0.00,WUHU216HW,2013-04-27 15:34:00,
2013-04-27 08:39:00,50.8,44.5,30.13,WSW,248,2.7,4.7,79,0.00,,,0.00,WUHU216HW,2013-04-27 15:39:00,
2013-04-27 08:44:00,50.9,44.6,30.13,West,270,3.6,7.8,79,0.00,,,0.00,WUHU216HW,2013-04-27 15:44:00,
2013-04-27 08:49:00,50.9,44.3,30.13,WSW,248,2.9,7.8,78,0.00,,,0.00,WUHU216HW,2013-04-27 15:49:00,
2013-04-27 08:54:00,51.1,44.8,30.13,SW,225,4.3,4.7,79,0.00,,,0.00,WUHU216HW,2013-04-27 15:54:00,
2013-04-27 08:59:00,51.5,45.2,30.14,South,180,2.9,7.6,79,0.00,,,0.00,WUHU216HW,2013-04-27 15:59:00,
2013-04-27 09:04:00,51.7,45.0,30.14,West,270,2.0,7.6,78,0.00,,,0.00,WUHU216HW,2013-04-27 16:04:00,
2013-04-27 09:09:00,51.8,44.9,30.14,WSW,248,2.7,6.5,77,0.00,,,0.00,WUHU216HW,2013-04-27 16:09:00,
2013-04-27 09:14:00,51.8,45.2,30.14,WSW,248,2.0,3.8,78,0.00,,,0.00,WUHU216HW,2013-04-27 16:14:00,
2013-04-27 09:19:00,52.0,45.4,30.14,West,270,3.4,3.8,78,0.00,,,0.00,WUHU216HW,2013-04-27 16:19:00,
2013-04-27 09:24:00,52.4,45.4,30.14,SW,225,1.3,3.4,77,0.00,,,0.00,WUHU216HW,2013-04-27 16:24:00,
2013-04-27 09:29:00,52.4,45.1,30.14,WSW,248,2.9,5.4,76,0.00,,,0.00,WUHU216HW,2013-04-27 16:29:00,
2013-04-27 09:34:00,52.4,45.4,30.14,SSW,203,0.9,5.4,77,0.00,,,0.00,WUHU216HW,2013-04-27 16:34:00,
2013-04-27 09:39:00,52.6,44.9,30.13,SSW,203,0.9,3.6,75,0.00,,,0.00,WUHU216HW,2013-04-27 16:39:00,
2013-04-27 09:44:00,52.9,45.2,30.14,WNW,293,0.9,3.4,75,0.00,,,0.00,WUHU216HW,2013-04-27 16:44:00,
2013-04-27 09:49:00,53.3,45.5,30.14,WNW,293,1.3,2.5,75,0.00,,,0.00,WUHU216HW,2013-04-27 16:49:00,
2013-04-27 09:54:00,53.6,45.9,30.14,NW,315,0.7,3.4,75,0.00,,,0.00,WUHU216HW,2013-04-27 16:54:00,
2013-04-27 09:59:00,54.0,45.9,30.14,WSW,248,0.0,3.4,74,0.00,,,0.00,WUHU216HW,2013-04-27 16:59:00,
2013-04-27 10:04:00,54.2,45.7,30.14,SW,225,1.1,3.4,73,0.00,,,0.00,WUHU216HW,2013-04-27 17:04:00,
2013-04-27 10:09:00,54.0,45.6,30.13,SW,225,1.1,2.5,73,0.00,,,0.00,WUHU216HW,2013-04-27 17:09:00,
2013-04-27 10:14:00,54.0,45.6,30.13,NNW,338,1.3,2.2,73,0.00,,,0.00,WUHU216HW,2013-04-27 17:14:00,
2013-04-27 10:19:00,54.4,45.6,30.14,NW,315,1.3,1.3,72,0.00,,,0.00,WUHU216HW,2013-04-27 17:19:00,
2013-04-27 10:24:00,54.4,45.6,30.14,NW,315,0.0,1.3,72,0.00,,,0.00,WUHU216HW,2013-04-27 17:24:00,
2013-04-27 10:29:00,54.4,45.6,30.14,NW,315,0.7,1.8,72,0.00,,,0.00,WUHU216HW,2013-04-27 17:29:00,
2013-04-27 10:34:00,54.4,45.2,30.14,West,270,0.4,2.2,71,0.00,,,0.00,WUHU216HW,2013-04-27 17:34:00,
2013-04-27 10:39:00,54.4,45.6,30.14,NE,45,1.8,2.2,72,0.00,,,0.00,WUHU216HW,2013-04-27 17:39:00,
2013-04-27 10:44:00,54.5,45.7,30.14,NE,45,0.0,1.8,72,0.00,,,0.00,WUHU216HW,2013-04-27 17:44:00,
2013-04-27 10:49:00,54.7,45.9,30.14,East,90,0.4,1.6,72,0.00,,,0.00,WUHU216HW,2013-04-27 17:49:00,
2013-04-27 10:54:00,54.9,45.7,30.14,ENE,68,1.6,1.8,71,0.00,,,0.00,WUHU216HW,2013-04-27 17:54:00,
2013-04-27 10:59:00,55.1,45.9,30.14,ESE,113,1.1,2.2,71,0.00,,,0.00,WUHU216HW,2013-04-27 17:59:00,
2013-04-27 11:04:00,55.4,46.3,30.14,East,90,0.4,2.2,71,0.00,,,0.00,WUHU216HW,2013-04-27 18:04:00,
2013-04-27 11:09:00,55.8,46.3,30.14,NE,45,2.5,2.5,70,0.00,,,0.00,WUHU216HW,2013-04-27 18:09:00,
2013-04-27 11:14:00,55.8,45.8,30.14,ESE,113,2.9,2.9,69,0.00,,,0.00,WUHU216HW,2013-04-27 18:14:00,
2013-04-27 11:19:00,55.6,45.6,30.15,ENE,68,1.3,6.0,69,0.00,,,0.00,WUHU216HW,2013-04-27 18:19:00,
2013-04-27 11:24:00,55.8,46.3,30.15,NNE,23,2.5,6.0,70,0.00,,,0.00,WUHU216HW,2013-04-27 18:24:00,
2013-04-27 11:29:00,55.8,45.8,30.15,ESE,113,1.6,5.6,69,0.00,,,0.00,WUHU216HW,2013-04-27 18:29:00,
2013-04-27 11:34:00,55.8,46.3,30.15,ENE,68,0.7,5.6,70,0.00,,,0.00,WUHU216HW,2013-04-27 18:34:00,
2013-04-27 11:39:00,56.2,46.5,30.16,NNE,23,1.1,3.8,70,0.00,,,0.00,WUHU216HW,2013-04-27 18:39:00,
2013-04-27 11:44:00,56.2,46.9,30.16,ESE,113,1.1,3.8,71,0.00,,,0.00,WUHU216HW,2013-04-27 18:44:00,
2013-04-27 11:49:00,56.0,46.7,30.16,NE,45,2.5,3.4,71,0.00,,,0.00,WUHU216HW,2013-04-27 18:49:00,
2013-04-27 11:54:00,56.0,47.1,30.16,NE,45,2.9,3.4,72,0.00,,,0.00,WUHU216HW,2013-04-27 18:54:00,
2013-04-27 11:59:00,56.0,47.4,30.16,ENE,68,1.1,3.4,73,0.00,,,0.00,WUHU216HW,2013-04-27 18:59:00,
2013-04-27 12:04:00,55.8,47.3,30.16,NE,45,1.8,3.1,73,0.00,,,0.00,WUHU216HW,2013-04-27 19:04:00,
2013-04-27 12:09:00,55.8,47.3,30.16,NE,45,2.9,2.9,73,0.00,,,0.00,WUHU216HW,2013-04-27 19:09:00,
2013-04-27 12:14:00,55.8,47.6,30.16,NE,45,2.5,2.9,74,0.00,,,0.00,WUHU216HW,2013-04-27 19:14:00,
2013-04-27 12:19:00,55.8,47.6,30.16,ESE,113,0.9,2.5,74,0.00,,,0.00,WUHU216HW,2013-04-27 19:19:00,
2013-04-27 12:24:00,56.0,47.8,30.16,ESE,113,1.1,4.5,74,0.00,,,0.00,WUHU216HW,2013-04-27 19:24:00,
2013-04-27 12:29:00,56.2,48.0,30.16,NE,45,1.8,4.5,74,0.01,,,0.00,WUHU216HW,2013-04-27 19:29:00,
2013-04-27 12:34:00,56.2,48.0,30.16,ENE,68,1.6,5.8,74,0.01,,,0.00,WUHU216HW,2013-04-27 19:34:00,
2013-04-27 12:39:00,56.2,48.0,30.16,SSE,158,4.3,5.8,74,0.01,,,0.00,WUHU216HW,2013-04-27 19:39:00,
2013-04-27 12:44:00,56.2,48.0,30.16,East,90,2.9,4.5,74,0.01,,,0.00,WUHU216HW,2013-04-27 19:44:00,
2013-04-27 12:49:00,56.2,48.3,30.16,ENE,68,1.8,4.7,75,0.01,,,0.00,WUHU216HW,2013-04-27 19:49:00,
2013-04-27 12:54:00,56.2,48.3,30.16,ENE,68,1.8,4.7,75,0.01,,,0.00,WUHU216HW,2013-04-27 19:54:00,
2013-04-27 12:59:00,56.3,48.2,30.16,SE,135,1.3,3.4,74,0.01,,,0.00,WUHU216HW,2013-04-27 19:59:00,
2013-04-27 13:04:00,56.2,48.3,30.16,SE,135,1.1,3.4,75,0.01,,,0.00,WUHU216HW,2013-04-27 20:04:00,
2013-04-27 13:09:00,56.2,48.3,30.15,ESE,113,3.4,3.4,75,0.01,,,0.00,WUHU216HW,2013-04-27 20:09:00,
2013-04-27 13:14:00,56.2,48.3,30.15,ENE,68,1.1,5.4,75,0.01,,,0.00,WUHU216HW,2013-04-27 20:14:00,
2013-04-27 13:19:00,56.3,48.5,30.15,East,90,1.8,5.4,75,0.01,,,0.00,WUHU216HW,2013-04-27 20:19:00,
2013-04-27 13:24:00,56.3,48.5,30.15,ENE,68,1.1,2.7,75,0.00,,,0.00,WUHU216HW,2013-04-27 20:24:00,
2013-04-27 13:29:00,56.2,48.3,30.16,North,0,0.7,2.7,75,0.00,,,0.00,WUHU216HW,2013-04-27 20:29:00,
2013-04-27 13:34:00,55.8,48.0,30.16,North,0,1.8,2.9,75,0.00,,,0.00,WUHU216HW,2013-04-27 20:34:00,
2013-04-27 13:39:00,55.3,47.4,30.16,ENE,68,3.1,4.0,75,0.00,,,0.00,WUHU216HW,2013-04-27 20:39:00,
2013-04-27 13:44:00,54.9,47.4,30.15,NNW,338,2.0,4.0,76,0.00,,,0.00,WUHU216HW,2013-04-27 20:44:00,
2013-04-27 13:49:00,54.7,47.3,30.15,ENE,68,1.8,3.1,76,0.00,,,0.00,WUHU216HW,2013-04-27 20:49:00,
2013-04-27 13:54:00,55.1,47.6,30.16,ENE,68,2.0,2.5,76,0.00,,,0.00,WUHU216HW,2013-04-27 20:54:00,
2013-04-27 13:59:00,55.1,47.6,30.15,North,0,1.8,2.5,76,0.00,,,0.00,WUHU216HW,2013-04-27 20:59:00,
2013-04-27 14:04:00,55.4,48.0,30.15,North,0,1.1,2.9,76,0.00,,,0.00,WUHU216HW,2013-04-27 21:04:00,
2013-04-27 14:09:00,55.6,48.2,30.15,NE,45,2.2,2.9,76,0.00,,,0.00,WUHU216HW,2013-04-27 21:09:00,
2013-04-27 14:14:00,55.8,48.3,30.15,NNE,23,0.4,2.5,76,0.00,,,0.00,WUHU216HW,2013-04-27 21:14:00,
2013-04-27 14:19:00,56.3,48.8,30.15,NNE,23,2.9,3.6,76,0.00,,,0.00,WUHU216HW,2013-04-27 21:19:00,
2013-04-27 14:24:00,56.5,48.6,30.15,NNW,338,2.5,5.1,75,0.00,,,0.00,WUHU216HW,2013-04-27 21:24:00,
2013-04-27 14:29:00,55.8,47.6,30.16,NE,45,3.8,5.1,74,0.00,,,0.00,WUHU216HW,2013-04-27 21:29:00,
2013-04-27 14:34:00,55.8,47.6,30.15,NNE,23,1.6,4.0,74,0.00,,,0.00,WUHU216HW,2013-04-27 21:34:00,
2013-04-27 14:39:00,55.8,48.0,30.15,NNE,23,1.1,4.0,75,0.00,,,0.00,WUHU216HW,2013-04-27 21:39:00,
2013-04-27 14:44:00,55.8,48.0,30.15,NNW,338,0.7,2.5,75,0.00,,,0.00,WUHU216HW,2013-04-27 21:44:00,
2013-04-27 14:49:00,56.2,48.0,30.15,NNE,23,0.7,2.5,74,0.00,,,0.00,WUHU216HW,2013-04-27 21:49:00,
2013-04-27 14:54:00,56.2,48.0,30.15,North,0,0.9,2.9,74,0.00,,,0.00,WUHU216HW,2013-04-27 21:54:00,
2013-04-27 14:59:00,56.2,48.0,30.15,North,0,2.0,2.9,74,0.00,,,0.00,WUHU216HW,2013-04-27 21:59:00,
2013-04-27 15:04:00,56.2,48.0,30.15,North,0,2.2,2.9,74,0.00,,,0.00,WUHU216HW,2013-04-27 22:04:00,
2013-04-27 15:09:00,56.2,48.0,30.15,NNW,338,1.1,3.1,74,0.00,,,0.00,WUHU216HW,2013-04-27 22:09:00,
2013-04-27 15:14:00,56.0,47.8,30.16,North,0,1.8,3.1,74,0.00,,,0.00,WUHU216HW,2013-04-27 22:14:00,
2013-04-27 15:19:00,55.8,47.6,30.15,North,0,2.5,3.1,74,0.00,,,0.00,WUHU216HW,2013-04-27 22:19:00,
2013-04-27 15:24:00,55.8,47.6,30.16,NNW,338,1.8,2.9,74,0.00,,,0.00,WUHU216HW,2013-04-27 22:24:00,
2013-04-27 15:29:00,55.6,47.4,30.15,NNW,338,3.6,3.6,74,0.00,,,0.00,WUHU216HW,2013-04-27 22:29:00,
2013-04-27 15:34:00,55.4,47.3,30.16,NNE,23,2.5,4.0,74,0.00,,,0.00,WUHU216HW,2013-04-27 22:34:00,
2013-04-27 15:39:00,55.4,47.3,30.16,North,0,0.9,4.5,74,0.00,,,0.00,WUHU216HW,2013-04-27 22:39:00,
2013-04-27 15:44:00,55.4,47.6,30.16,NW,315,3.1,4.5,75,0.00,,,0.00,WUHU216HW,2013-04-27 22:44:00,
2013-04-27 15:49:00,55.1,47.6,30.16,NNW,338,1.1,4.7,76,0.00,,,0.00,WUHU216HW,2013-04-27 22:49:00,
2013-04-27 15:54:00,54.7,47.3,30.16,NNW,338,2.5,4.7,76,0.00,,,0.00,WUHU216HW,2013-04-27 22:54:00,
2013-04-27 15:59:00,54.2,46.8,30.16,NW,315,2.7,3.6,76,0.00,,,0.00,WUHU216HW,2013-04-27 22:59:00,
2013-04-27 16:04:00,54.0,46.6,30.16,NW,315,1.3,3.4,76,0.00,,,0.00,WUHU216HW,2013-04-27 23:04:00,
2013-04-27 16:09:00,54.0,46.6,30.16,West,270,2.5,2.7,76,0.00,,,0.00,WUHU216HW,2013-04-27 23:09:00,
2013-04-27 16:14:00,53.6,46.6,30.16,NW,315,0.4,3.1,77,0.00,,,0.00,WUHU216HW,2013-04-27 23:14:00,
2013-04-27 16:19:00,53.3,46.6,30.16,SW,225,1.3,3.1,78,0.00,,,0.00,WUHU216HW,2013-04-27 23:19:00,
2013-04-27 16:24:00,53.6,47.0,30.16,WNW,293,1.1,2.5,78,0.00,,,0.00,WUHU216HW,2013-04-27 23:24:00,
2013-04-27 16:29:00,53.6,47.3,30.16,WSW,248,1.1,3.6,79,0.00,,,0.00,WUHU216HW,2013-04-27 23:29:00,
2013-04-27 16:34:00,53.5,46.8,30.16,NW,315,0.9,3.6,78,0.00,,,0.00,WUHU216HW,2013-04-27 23:34:00,
2013-04-27 16:39:00,53.1,46.4,30.16,West,270,4.0,4.0,78,0.00,,,0.00,WUHU216HW,2013-04-27 23:39:00,
2013-04-27 16:44:00,52.9,46.3,30.16,SSW,203,0.4,4.0,78,0.00,,,0.00,WUHU216HW,2013-04-27 23:44:00,
2013-04-27 16:49:00,52.6,46.6,30.16,West,270,2.5,2.5,80,0.00,,,0.00,WUHU216HW,2013-04-27 23:49:00,
2013-04-27 16:54:00,52.2,46.5,30.16,WSW,248,1.1,2.7,81,0.00,,,0.00,WUHU216HW,2013-04-27 23:54:00,
2013-04-27 16:59:00,51.8,46.2,30.16,WSW,248,2.0,2.9,81,0.00,,,0.00,WUHU216HW,2013-04-27 23:59:00,
2013-04-27 17:04:00,51.5,46.2,30.16,West,270,1.1,4.0,82,0.00,,,0.00,WUHU216HW,2013-04-28 00:04:00,
2013-04-27 17:09:00,51.3,46.3,30.16,WSW,248,1.3,4.0,83,0.00,,,0.00,WUHU216HW,2013-04-28 00:09:00,
2013-04-27 17:14:00,51.1,46.1,30.16,West,270,2.0,2.5,83,0.00,,,0.00,WUHU216HW,2013-04-28 00:14:00,
2013-04-27 17:19:00,50.9,46.3,30.16,SW,225,1.3,2.5,84,0.00,,,0.00,WUHU216HW,2013-04-28 00:19:00,
2013-04-27 17:24:00,51.3,46.6,30.16,SW,225,2.5,2.5,84,0.00,,,0.00,WUHU216HW,2013-04-28 00:24:00,
2013-04-27 17:29:00,51.1,46.7,30.16,SW,225,2.2,3.4,85,0.00,,,0.00,WUHU216HW,2013-04-28 00:29:00,
2013-04-27 17:34:00,50.9,46.3,30.16,NW,315,2.2,3.4,84,0.00,,,0.00,WUHU216HW,2013-04-28 00:34:00,
2013-04-27 17:39:00,51.1,46.7,30.16,SSW,203,0.7,2.5,85,0.00,,,0.00,WUHU216HW,2013-04-28 00:39:00,
2013-04-27 17:44:00,51.1,46.5,30.16,West,270,1.1,2.5,84,0.00,,,0.00,WUHU216HW,2013-04-28 00:44:00,
2013-04-27 17:49:00,50.9,46.8,30.16,SW,225,1.8,3.1,86,0.00,,,0.00,WUHU216HW,2013-04-28 00:49:00,
2013-04-27 17:54:00,50.8,47.0,30.16,SW,225,2.5,3.1,87,0.00,,,0.00,WUHU216HW,2013-04-28 00:54:00,
2013-04-27 17:59:00,50.4,46.3,30.16,SW,225,3.6,3.6,86,0.00,,,0.00,WUHU216HW,2013-04-28 00:59:00,
2013-04-27 18:04:00,50.2,46.1,30.16,West,270,0.4,4.0,86,0.00,,,0.00,WUHU216HW,2013-04-28 01:04:00,
2013-04-27 18:09:00,50.0,46.3,30.16,NW,315,2.9,4.7,87,0.00,,,0.00,WUHU216HW,2013-04-28 01:09:00,
2013-04-27 18:14:00,49.7,46.3,30.17,SSW,203,2.7,4.7,88,0.01,,,0.00,WUHU216HW,2013-04-28 01:14:00,
2013-04-27 18:19:00,49.3,45.9,30.17,West,270,1.8,5.8,88,0.01,,,0.02,WUHU216HW,2013-04-28 01:19:00,
2013-04-27 18:24:00,49.3,46.2,30.17,SW,225,1.8,5.8,89,0.01,,,0.02,WUHU216HW,2013-04-28 01:24:00,
2013-04-27 18:29:00,49.1,46.1,30.16,SW,225,2.9,5.4,89,0.01,,,0.02,WUHU216HW,2013-04-28 01:29:00,
2013-04-27 18:34:00,49.0,46.2,30.17,WSW,248,2.0,5.4,90,0.01,,,0.02,WUHU216HW,2013-04-28 01:34:00,
2013-04-27 18:39:00,49.1,46.4,30.17,SW,225,4.9,4.9,90,0.01,,,0.02,WUHU216HW,2013-04-28 01:39:00,
2013-04-27 18:44:00,49.1,46.4,30.17,WSW,248,2.0,4.9,90,0.01,,,0.02,WUHU216HW,2013-04-28 01:44:00,
2013-04-27 18:49:00,49.1,46.4,30.17,WSW,248,2.5,4.9,90,0.02,,,0.02,WUHU216HW,2013-04-28 01:49:00,
2013-04-27 18:54:00,49.3,46.8,30.17,North,0,0.0,2.5,91,0.02,,,0.02,WUHU216HW,2013-04-28 01:54:00,
2013-04-27 18:59:00,49.3,46.5,30.17,WSW,248,1.6,2.5,90,0.02,,,0.02,WUHU216HW,2013-04-28 01:59:00,
2013-04-27 19:04:00,49.3,46.5,30.16,WSW,248,3.4,3.4,90,0.02,,,0.02,WUHU216HW,2013-04-28 02:04:00,
2013-04-27 19:09:00,49.1,46.4,30.16,SSW,203,5.4,5.4,90,0.02,,,0.02,WUHU216HW,2013-04-28 02:09:00,
2013-04-27 19:14:00,49.1,46.4,30.16,North,0,0.0,5.4,90,0.01,,,0.02,WUHU216HW,2013-04-28 02:14:00,
2013-04-27 19:19:00,49.3,46.5,30.16,North,0,0.0,5.4,90,0.01,,,0.02,WUHU216HW,2013-04-28 02:19:00,
2013-04-27 19:24:00,49.3,46.5,30.16,North,0,0.0,0.0,90,0.01,,,0.02,WUHU216HW,2013-04-28 02:24:00,
2013-04-27 19:29:00,49.1,46.4,30.16,North,0,0.0,0.0,90,0.01,,,0.02,WUHU216HW,2013-04-28 02:29:00,
2013-04-27 19:34:00,49.0,46.2,30.16,North,0,0.0,0.0,90,0.01,,,0.02,WUHU216HW,2013-04-28 02:34:00,
2013-04-27 19:39:00,48.8,46.0,30.16,North,0,0.0,0.0,90,0.01,,,0.02,WUHU216HW,2013-04-28 02:39:00,
2013-04-27 19:44:00,48.8,45.7,30.16,North,0,0.0,0.0,89,0.01,,,0.02,WUHU216HW,2013-04-28 02:44:00,
2013-04-27 19:49:00,48.8,46.0,30.16,North,0,0.0,0.0,90,0.00,,,0.02,WUHU216HW,2013-04-28 02:49:00,
2013-04-27 19:54:00,48.6,46.2,30.16,North,0,0.0,0.0,91,0.00,,,0.02,WUHU216HW,2013-04-28 02:54:00,
2013-04-27 19:59:00,48.6,45.9,30.16,North,0,0.0,0.0,90,0.00,,,0.02,WUHU216HW,2013-04-28 02:59:00,
2013-04-27 20:04:00,48.6,46.2,30.16,North,0,0.0,0.0,91,0.00,,,0.02,WUHU216HW,2013-04-28 03:04:00,
2013-04-27 20:09:00,48.6,45.9,30.17,North,0,0.0,0.0,90,0.00,,,0.02,WUHU216HW,2013-04-28 03:09:00,
2013-04-27 20:14:00,48.6,46.2,30.16,North,0,0.0,0.0,91,0.00,,,0.02,WUHU216HW,2013-04-28 03:14:00,
2013-04-27 20:19:00,48.6,46.2,30.16,North,0,0.0,0.0,91,0.00,,,0.02,WUHU216HW,2013-04-28 03:19:00,
2013-04-27 20:24:00,48.4,46.0,30.16,North,0,0.0,0.0,91,0.00,,,0.02,WUHU216HW,2013-04-28 03:24:00,
2013-04-27 20:29:00,48.6,46.2,30.16,SW,225,1.3,1.3,91,0.00,,,0.02,WUHU216HW,2013-04-28 03:29:00,
2013-04-27 20:34:00,48.6,46.2,30.16,WSW,248,2.5,2.5,91,0.00,,,0.02,WUHU216HW,2013-04-28 03:34:00,
2013-04-27 20:39:00,48.4,46.0,30.16,WSW,248,1.1,4.0,91,0.00,,,0.02,WUHU216HW,2013-04-28 03:39:00,
2013-04-27 20:44:00,48.4,46.0,30.16,WSW,248,3.1,4.0,91,0.00,,,0.02,WUHU216HW,2013-04-28 03:44:00,
2013-04-27 20:49:00,48.2,45.8,30.16,SW,225,6.7,6.7,91,0.00,,,0.02,WUHU216HW,2013-04-28 03:49:00,
2013-04-27 20:54:00,48.2,45.8,30.16,SW,225,2.0,6.7,91,0.00,,,0.02,WUHU216HW,2013-04-28 03:54:00,
2013-04-27 20:59:00,48.2,45.8,30.16,WSW,248,3.8,4.5,91,0.00,,,0.02,WUHU216HW,2013-04-28 03:59:00,
2013-04-27 21:04:00,48.1,45.6,30.16,West,270,0.7,4.5,91,0.00,,,0.02,WUHU216HW,2013-04-28 04:04:00,
2013-04-27 21:09:00,48.1,45.6,30.16,SW,225,1.1,3.8,91,0.00,,,0.02,WUHU216HW,2013-04-28 04:09:00,
2013-04-27 21:14:00,47.9,45.5,30.17,West,270,0.9,3.8,91,0.00,,,0.02,WUHU216HW,2013-04-28 04:14:00,
2013-04-27 21:19:00,47.9,45.5,30.17,WSW,248,1.8,3.8,91,0.00,,,0.02,WUHU216HW,2013-04-28 04:19:00,
2013-04-27 21:24:00,48.1,45.6,30.18,SW,225,2.2,3.1,91,0.00,,,0.02,WUHU216HW,2013-04-28 04:24:00,
2013-04-27 21:29:00,48.1,45.6,30.18,WSW,248,1.1,2.5,91,0.00,,,0.02,WUHU216HW,2013-04-28 04:29:00,
2013-04-27 21:34:00,48.1,45.6,30.17,WSW,248,3.4,4.9,91,0.00,,,0.02,WUHU216HW,2013-04-28 04:34:00,
2013-04-27 21:39:00,48.1,45.6,30.17,WSW,248,1.8,4.9,91,0.00,,,0.02,WUHU216HW,2013-04-28 04:39:00,
2013-04-27 21:44:00,48.1,45.6,30.18,SW,225,1.1,3.4,91,0.00,,,0.02,WUHU216HW,2013-04-28 04:44:00,
2013-04-27 21:49:00,48.1,45.6,30.17,WSW,248,0.7,2.5,91,0.00,,,0.02,WUHU216HW,2013-04-28 04:49:00,
2013-04-27 21:54:00,48.1,45.6,30.17,SSW,203,0.4,2.5,91,0.00,,,0.02,WUHU216HW,2013-04-28 04:54:00,
2013-04-27 21:59:00,48.2,45.8,30.18,WSW,248,1.6,2.0,91,0.00,,,0.02,WUHU216HW,2013-04-28 04:59:00,
2013-04-27 22:04:00,48.2,45.8,30.17,SW,225,2.5,2.5,91,0.00,,,0.02,WUHU216HW,2013-04-28 05:04:00,
2013-04-27 22:09:00,48.2,45.8,30.17,SW,225,0.7,2.5,91,0.00,,,0.02,WUHU216HW,2013-04-28 05:09:00,
2013-04-27 22:14:00,48.2,45.8,30.17,SW,225,2.5,3.8,91,0.00,,,0.02,WUHU216HW,2013-04-28 05:14:00,
2013-04-27 22:19:00,48.2,45.8,30.17,WSW,248,3.4,3.8,91,0.00,,,0.02,WUHU216HW,2013-04-28 05:19:00,
2013-04-27 22:24:00,48.2,45.8,30.17,SW,225,2.2,3.4,91,0.00,,,0.02,WUHU216HW,2013-04-28 05:24:00,
2013-04-27 22:29:00,48.4,46.0,30.17,SW,225,1.1,3.4,91,0.00,,,0.02,WUHU216HW,2013-04-28 05:29:00,
2013-04-27 22:34:00,48.6,46.2,30.17,SW,225,1.1,2.5,91,0.00,,,0.02,WUHU216HW,2013-04-28 05:34:00,
2013-04-27 22:39:00,48.6,46.2,30.17,SSW,203,0.9,2.5,91,0.00,,,0.02,WUHU216HW,2013-04-28 05:39:00,
2013-04-27 22:44:00,48.6,46.2,30.17,South,180,0.0,2.5,91,0.00,,,0.02,WUHU216HW,2013-04-28 05:44:00,
2013-04-27 22:49:00,48.6,45.9,30.18,South,180,0.0,2.2,90,0.00,,,0.02,WUHU216HW,2013-04-28 05:49:00,
2013-04-27 22:54:00,48.6,45.9,30.18,South,180,0.0,0.7,90,0.00,,,0.02,WUHU216HW,2013-04-28 05:54:00,
2013-04-27 22:59:00,48.6,45.9,30.18,SSE,158,0.0,1.6,90,0.00,,,0.02,WUHU216HW,2013-04-28 05:59:00,
2013-04-27 23:04:00,48.6,45.9,30.18,SSE,158,0.0,1.6,90,0.00,,,0.02,WUHU216HW,2013-04-28 06:04:00,
2013-04-27 23:09:00,48.6,45.9,30.18,North,0,0.9,0.9,90,0.00,,,0.02,WUHU216HW,2013-04-28 06:09:00,
2013-04-27 23:14:00,48.6,45.9,30.18,NNW,338,0.0,0.9,90,0.00,,,0.02,WUHU216HW,2013-04-28 06:14:00,
2013-04-27 23:19:00,48.6,45.9,30.18,NNW,338,0.0,0.7,90,0.00,,,0.02,WUHU216HW,2013-04-28 06:19:00,
2013-04-27 23:24:00,48.6,45.9,30.18,NW,315,0.7,0.9,90,0.00,,,0.02,WUHU216HW,2013-04-28 06:24:00,
2013-04-27 23:29:00,48.6,45.9,30.18,North,0,1.3,1.8,90,0.00,,,0.02,WUHU216HW,2013-04-28 06:29:00,
2013-04-27 23:34:00,48.6,45.9,30.18,NW,315,0.7,1.8,90,0.00,,,0.02,WUHU216HW,2013-04-28 06:34:00,
2013-04-27 23:39:00,48.6,45.9,30.18,WNW,293,3.4,3.4,90,0.00,,,0.02,WUHU216HW,2013-04-28 06:39:00,
2013-04-27 23:44:00,48.6,45.9,30.18,NW,315,1.8,3.4,90,0.00,,,0.02,WUHU216HW,2013-04-28 06:44:00,
2013-04-27 23:49:00,48.8,46.0,30.18,WSW,248,1.3,3.4,90,0.00,,,0.02,WUHU216HW,2013-04-28 06:49:00,
2013-04-27 23:54:00,48.6,45.9,30.18,SW,225,3.1,3.1,90,0.00,,,0.02,WUHU216HW,2013-04-28 06:54:00,
2013-04-27 23:59:00,48.6,45.5,30.18,SE,135,0.4,3.6,89,0.00,,,0.02,WUHU216HW,2013-04-28 06:59:00,